{"data":{"norad_id":62857,"intl_designator":"2025-022D","name":"STARLINK-32873","alt_names":[],"object_type":"PAYLOAD","status":"ACTIVE","operator":null,"country":"US","launch_date":"2025-02-01","launch_site_code":"AFWTR","launch_vehicle":null,"mission":null,"orbit_class":"UNKNOWN","rcs_meters":null,"size_class":null,"mass_kg":null,"dimensions":null,"purposes":["comms"],"wikipedia_slug":null,"has_3d_model":false,"image_url":null,"decayed_at":null,"tle_current":{"epoch":"2026-05-25T03:43:19.801056Z","epoch_age_seconds":61719,"freshness":"FRESH","line1":"1 62857U 25022D   26145.15509029  .00012877  00000+0  44603-3 0  9992","line2":"2 62857  53.1588 134.7035 0001261  98.3405 261.7738 15.30207353 73601","mean_motion":15.30207353,"eccentricity":0.0001261,"inclination_deg":53.1588,"raan_deg":134.7035,"arg_perigee_deg":98.3405,"mean_anomaly_deg":261.7738,"bstar":0.00044603,"rev_number":7360,"period_min":94.104893508507,"perigee_km":474.32890984715,"apogee_km":476.0573197021,"semimajor_km":6853.3301147746,"source":"CELESTRAK","updated_at":"2026-05-25T13:38:19.783456Z"}}}